Miscellaneous Local Product
Issued by NWS North Platte, NE

Home | Current Version | Previous Version | Graphics & Text | Print | Product List | Glossary On
Versions: 1 2 3 4 5 6 7 8 9 10 11 12 13 14 15 16 17 18 19 20 21 22 23 24 25 26 27 28 29 30 31 32 33 34 35 36 37 38 39 40 41 42 43 44 45 46 47 48 49 50
963
AXUS43 KLBF 160110
MISLBF


WESTERN AND NORTH CENTRAL NEBRASKA HOURLY WEATHER ROUNDUP
NATIONAL WEATHER SERVICE NORTH PLATTE NE
800 PM CDT TUE AUG 15 2017

NOTE: "FAIR" INDICATES FEW OR NO CLOUDS BELOW 12,000 FEET WITH NO
SIGNIFICANT WEATHER AND/OR OBSTRUCTIONS TO VISIBILITY.

NOTE: STATIONS NOT REPORTING VARIABLES SUCH AS SKY/WEATHER OR
PRESSURE ARE PROVIDED BY RAWS AND APRS NETWORKS AND ARE NOT UNDER
NATIONAL WEATHER SERVICE QUALITY CONTROL.

...OBSERVATIONS IN AND NEAR THE EASTERN PANHANDLE OF NEBRASKA...

CITY           SKY/WX    TMP DP  RH WIND       PRES   REMARKS
PINE RIDGE     TSTM      74  62  66 N10       29.84R
GORDON         FAIR      75  62  63 N12G18    29.81R
CHADRON        TSTM      66  59  78 W14G28    29.87R
ALLIANCE       CLOUDY    63  56  78 W32G40    29.87R
SIDNEY         CLOUDY    65  57  75 W21G35    29.87R THUNDER
CRESCENT LAKE    N/A     75  64  70 NW6         N/A
$$

...OBSERVATIONS IN NORTHERN NEBRASKA AND FAR SOUTHERN SOUTH DAKOTA...

CITY           SKY/WX    TMP DP  RH WIND       PRES   REMARKS
WINNER         FAIR      73  67  81 SE14      29.77F
VALENTINE      CLOUDY    76  66  71 E14       29.77F
THEDFORD       TSTM      71  68  90 SE16      29.79R
AINSWORTH      CLOUDY    70  66  88 E14       29.81R
O`NEILL        CLOUDY    64  62  91 SE9G21    29.79F
ORD            RAIN      66  63  90 E13G24    29.79F FOG
BROKEN BOW     LGT RAIN  66  63  90 N16G24    29.82R
VALENTINE NWR    N/A     76  69  79 E12         N/A
HALSEY           N/A     71  67  87 SE13G23     N/A
BUTTE            N/A     64  62  95 CALM        N/A
CHAMBERS         N/A     64  63  96 SE5         N/A
EWING            N/A     63  62  95 E3          N/A
$$

...OBSERVATIONS IN SOUTHWEST NEBRASKA AND FAR NORTHEAST COLORADO...

CITY           SKY/WX    TMP DP  RH WIND       PRES   REMARKS
HOLYOKE        FAIR      79  63  57 S10       29.76F
IMPERIAL       CLOUDY    82  60  47 S12       29.75R
OGALLALA       CLOUDY    75  65  71 CALM      29.76S
NORTH PLATTE   MOCLDY    82  66  58 S5        29.73R
MCCOOK         CLEAR     84  62  47 S9        29.71F
LEXINGTON      CLEAR     82  68  63 E12       29.75R
STAPLETON        N/A     66  64  92 E10G18      N/A
GOTHENBURG       N/A     84  64  51 SE8         N/A
CALLAWAY         N/A     82  69  63 SE12        N/A
$$

...OBSERVATIONS IN CENTRAL LINCOLN COUNTY AREA...

CITY           SKY/WX    TMP DP  RH WIND       PRES   REMARKS
N.P. AIRPORT   MOCLDY    82  66  58 S5        29.73R
N.P. DOWNTOWN    N/A     87  67  50 CALM        N/A
N.P. HILLCREST   N/A     74  63  69 NE13        N/A
$$

...SOME OBSERVATIONS FROM AROUND THE REGION...

CITY           SKY/WX    TMP DP  RH WIND       PRES   REMARKS
DENVER         CLOUDY    73  47  39 SW9       29.87F
LIMON          CLOUDY    62  58  86 N3        29.92R
ASPEN          CLOUDY    67  24  19 N6        30.12R
LARAMIE        LGT RAIN  53  46  77 NW6       30.12R
CASPER         CLOUDY    60  50  69 N9        30.02R
CHEYENNE       LGT RAIN  58  47  66 NW25G37   30.06R
SCOTTSBLUFF    LGT RAIN  65  60  84 SE17      29.90R
GRAND ISLAND   MOCLDY    73  64  73 NE12      29.81S
OMAHA          CLOUDY    72  64  76 N18G29    29.86R
SIOUX FALLS    CLOUDY    68  66  93 E9        29.85R
PIERRE         LGT RAIN  70  65  84 SE15      29.74F
RAPID CITY     CLOUDY    70  55  59 N16       29.86S
BISMARCK       LGT RAIN  64  63  96 NE9       29.81R FOG
KANSAS CITY    MOCLDY    81  71  71 SE8       29.84S
HILL CITY      CLOUDY    87  62  43 S14G21    29.75R
WICHITA        MOCLDY    81  73  76 SE12      29.79S
DODGE CITY     CLEAR     83  63  50 SE16      29.78S
OKLAHOMA CITY  CLOUDY    81  72  74 E8        29.81R
DALLAS         PTCLDY    92  68  45 SE10      29.76R HX  96
AMARILLO       CLEAR     80  67  64 S17       29.85S
$$




USA.gov is the U.S. government's official web portal to all federal, state and local government web resources and services.